Regional Weather Roundup
Issued by NWS

Home | Current Version | Previous Version | Graphics & Text | Print | Product List | Glossary On
Versions: 1 2 3 4 5 6 7 8 9 10 11 12 13 14 15 16 17 18 19 20 21 22 23 24 25 26 27
000
ASUS45 KSLC 211810
RWRUT

UTAH REGIONAL WEATHER ROUNDUP
NATIONAL WEATHER SERVICE SALT LAKE CITY UT
1100 AM MST SUN JAN 21 2018

UTZ001>011-023>025-211900-

NORTHERN UTAH

CITY           SKY/WX    TMP DP  RH WIND       PRES   REMARKS
BRIGHAM CITY   MOSUNNY   31  19  60 CALM      30.21R
HILL AFB       CLOUDY    28  19  70 S3        30.18R
LOGAN          CLOUDY    30  21  69 NE3       30.20R
OGDEN          CLOUDY    29  20  69 W5        30.19R WCI  24
SALT LAKE CITY PTSUNNY   33  22  63 NW8       30.20R WCI  26
TOOELE VALLEY  CLOUDY    30  25  80 CALM      30.22R
WENDOVER       SUNNY     37  16  42 N9        30.23R WCI  30
HEBER CITY     CLOUDY    28  14  54 CALM      30.10R
WEST JORDAN    CLOUDY    28  23  82 NW7       30.20R WCI  20

$$

UTZ011>015-024>027-211900-

CENTRAL/NORTHEAST UTAH

CITY           SKY/WX    TMP DP  RH WIND       PRES   REMARKS
PROVO AIRPORT  CLOUDY    31  21  66 NW15      30.19R WCI  20
MOAB/CANYONLAN CLOUDY    32  20  61 NW17      30.00R WCI  21
DELTA          CLOUDY    27  21  80 S7        30.21R WCI  19
PRICE          MOSUNNY   27  10  49 NW24G37   30.01R WCI  12
RICHFIELD      CLOUDY    27  21  80 CALM      30.19R
ROOSEVELT      SUNNY     32  18  55 W10       30.02R WCI  24
VERNAL         MOSUNNY   27  14  58 S7        30.00R WCI  19

$$

UTZ013>016-019>022-027-211900-

SOUTHERN UTAH

CITY           SKY/WX    TMP DP  RH WIND       PRES   REMARKS
BRYCE CANYON   SUNNY     20  10  65 NW17      30.07R WCI   5
CEDAR CITY     MOSUNNY   21  18  88 W5        30.18R WCI  15
MILFORD        CLOUDY    30  19  63 CALM      30.21R
ST GEORGE      MOCLDY    41  19  41 SW8       30.24R
HANKSVILLE     MOSUNNY   37   9  30 W12       30.08R WCI  30
KANAB          SUNNY     36  10  35 SW6       30.19R WCI  31
BLANDING         N/A     29  18  63 NW21G30   30.01R WCI  16

$$

REGIONAL REPORTS     COLORADO/ARIZONA

CITY           SKY/WX    TMP DP  RH WIND       PRES   REMARKS
CRAIG, CO      SNOW      22  17  81 N14G24    29.87R VSB 1/2 WCI   9
GRAND JUNCTION CLOUDY    29  26  89 NW12      29.96R WCI  19
RIFLE, CO      CLOUDY    29  17  61 W15       29.90R WCI  18
MONTROSE, CO   CLOUDY    28  20  71 NW23G35   29.90R WCI  14
CORTEZ, CO     CLOUDY    26  21  81 W9G21     29.93R WCI  17
COLORADO CITY    N/A     36  18  48 NW15      30.19R WCI  26
PAGE, AZ       SUNNY     39   8  27 W15G25    30.09R WCI  31
GRAND CANYON   SUNNY     26  10  50 N12G22    30.08R WCI  16
KINGMAN, AZ    SUNNY    N/A N/A N/A N14       30.25R
FLAGSTAFF, AZ  SUNNY     26   9  48 W9        30.06R WCI  17

$$

REGIONAL REPORTS    NEVADA/IDAHO/WYOMING

CITY           SKY/WX    TMP DP  RH WIND       PRES   REMARKS
LAS VEGAS, NV  SUNNY     49  15  25 NE7       30.29R
ELY, NY        SUNNY      8   3  80 SE8       30.23R WCI  -4
ELKO, NV       SUNNY     30  20  66 SW13      30.26R WCI  20
POCATELLO, ID  MOSUNNY   29  22  75 SW12      30.21R WCI  19
BURLEY, ID     SUNNY     33  24  69 W9        30.21R WCI  25
FORT BRIDGER,  CLOUDY    20  13  74 W17       30.06R WCI   5
EVANSTON, WY   LGT SNOW  17  12  80 W8        30.06R WCI   7
ROCK SPRINGS,  LGT SNOW  17  13  84 SW10      30.00R FOG     WCI   5

$$




USA.gov is the U.S. government's official web portal to all federal, state and local government web resources and services.